Date String (YYYY-MM-DD hh:mm:ss) UTC,Instrument flags,Ambient pressure (hPa),Sample flow (lpm),Bypass flow (lpm),Sample temperature (°C),Ambient temperature (°C),ASC tube jacket temperature (°C),LED temperature (°C),Box temperature (°C),Sample RH (%),Span deviation,Mass concentration (μg/m³),Mass concentration (μg/m³),Mass concentration (μg/m³)
DateTimeUTC,F1_M11,P_M11,Q1_M11,Q2_M11,T1_M11,T2_M11,T3_M11,T4_M11,T5_M11,U1_M11,ZSPAN_M11,X2_M11,X0_M11,X1_M11
2022-06-10 08:00:00,,0828.1,4.99,0.00,29.5,28.6,00.0,38.4,31.4,24.9,0000.0,0004.90,0014.14,0003.20
2022-06-10 08:01:00,,0828.1,4.99,0.00,29.5,28.6,00.0,38.4,31.4,24.7,0000.0,0004.96,0014.35,0003.22
2022-06-10 08:02:00,,0828.0,4.99,0.00,29.5,28.6,00.0,38.4,31.4,24.7,0000.0,0004.96,0013.92,0003.23
2022-06-10 08:03:00,,0828.1,5.00,0.00,29.5,28.6,00.0,38.4,31.4,24.7,0000.0,0004.94,0013.37,0003.23
2022-06-10 08:04:00,,0828.0,5.01,0.00,29.6,28.7,00.0,38.4,31.5,24.8,0000.0,0004.93,0013.74,0003.24
2022-06-10 08:05:00,,0828.0,5.00,0.00,29.6,28.7,00.0,38.4,31.5,24.8,0000.0,0004.95,0013.38,0003.25
2022-06-10 08:06:00,,0828.0,4.98,0.00,29.6,28.7,00.0,38.4,31.5,24.7,0000.0,0004.98,0013.96,0003.26
2022-06-10 08:07:00,,0828.0,5.00,0.00,29.6,28.7,00.0,38.4,31.5,24.5,0000.0,0005.06,0015.28,0003.27
2022-06-10 08:08:00,,0828.0,5.00,0.00,29.6,28.7,00.0,38.5,31.5,24.5,0000.0,0005.09,0016.16,0003.27
2022-06-10 08:09:00,,0828.0,4.99,0.00,29.6,28.7,00.0,38.5,31.5,24.5,0000.0,0005.11,0017.00,0003.27
2022-06-10 08:10:00,,0828.1,4.99,0.00,29.6,28.7,00.0,38.5,31.5,24.5,0000.0,0005.08,0017.04,0003.27
2022-06-10 08:11:00,,0828.0,5.00,0.00,29.6,28.7,00.0,38.5,31.5,24.6,0000.0,0005.06,0017.02,0003.26
2022-06-10 08:12:00,,0827.9,5.00,0.00,29.6,28.7,00.0,38.5,31.5,24.5,0000.0,0005.04,0017.82,0003.26
2022-06-10 08:13:00,,0828.0,5.00,0.00,29.6,28.7,00.0,38.5,31.5,24.5,0000.0,0005.03,0018.22,0003.25
2022-06-10 08:14:00,,0827.8,5.00,0.00,29.7,28.7,00.0,38.5,31.6,24.7,0000.0,0005.06,0018.31,0003.25
2022-06-10 08:15:00,,0827.9,5.01,0.00,29.7,28.7,00.0,38.5,31.6,24.7,0000.0,0005.07,0018.41,0003.24
2022-06-10 08:16:00,,0827.8,4.98,0.00,29.7,28.8,00.0,38.5,31.5,24.7,0000.0,0005.03,0018.46,0003.22
2022-06-10 08:17:00,,0827.8,5.00,0.00,29.7,28.7,00.0,38.6,31.5,24.7,0000.0,0005.03,0017.56,0003.20
2022-06-10 08:18:00,,0827.8,5.00,0.00,29.7,28.7,00.0,38.6,31.5,24.6,0000.0,0004.94,0016.48,0003.19
2022-06-10 08:19:00,,0827.8,5.00,0.00,29.6,28.7,00.0,38.6,31.5,24.5,0000.0,0004.89,0015.76,0003.18
2022-06-10 08:20:00,,0827.8,5.00,0.00,29.6,28.7,00.0,38.6,31.5,24.7,0000.0,0004.85,0015.54,0003.18
2022-06-10 08:21:00,,0827.8,4.98,0.00,29.6,28.7,00.0,38.6,31.5,24.7,0000.0,0004.84,0016.26,0003.17
2022-06-10 08:22:00,,0827.8,5.00,0.00,29.6,28.7,00.0,38.6,31.5,24.8,0000.0,0004.84,0016.44,0003.18
2022-06-10 08:23:00,,0827.8,5.00,0.00,29.7,28.7,00.0,38.6,31.5,24.8,0000.0,0004.81,0015.56,0003.18
2022-06-10 08:24:00,,0827.8,5.00,0.00,29.7,28.7,00.0,38.6,31.5,24.8,0000.0,0004.77,0015.17,0003.18
2022-06-10 08:25:00,,0827.8,5.00,0.00,29.7,28.7,00.0,38.6,31.5,24.7,0000.0,0004.70,0015.16,0003.17
2022-06-10 08:26:00,,0827.8,5.00,0.00,29.7,28.7,00.0,38.6,31.6,24.6,0000.0,0004.67,0014.70,0003.17
2022-06-10 08:27:00,,0827.8,5.00,0.00,29.7,28.7,00.0,38.6,31.6,24.7,0000.0,0004.71,0014.34,0003.18
2022-06-10 08:28:00,,0827.9,5.01,0.00,29.7,28.8,00.0,38.6,31.6,24.7,0000.0,0004.72,0014.21,0003.19
2022-06-10 08:29:00,,0827.8,5.01,0.00,29.7,28.8,00.0,38.6,31.6,24.6,0000.0,0004.75,0014.11,0003.20
2022-06-10 08:30:00,,0827.9,5.00,0.00,29.7,28.8,00.0,38.6,31.6,24.7,0000.0,0004.73,0014.56,0003.19
2022-06-10 08:31:00,,0827.9,4.99,0.00,29.7,28.8,00.0,38.6,31.6,24.6,0000.0,0004.72,0014.11,0003.20
2022-06-10 08:32:00,,0827.9,5.01,0.00,29.7,28.8,00.0,38.6,31.6,24.6,0000.0,0004.73,0013.30,0003.20
2022-06-10 08:33:00,,0827.9,5.01,0.00,29.7,28.8,00.0,38.6,31.6,24.6,0000.0,0004.83,0013.24,0003.20
2022-06-10 08:34:00,,0827.9,5.00,0.00,29.7,28.8,00.0,38.6,31.6,24.7,0000.0,0004.89,0013.29,0003.22
2022-06-10 08:35:00,,0827.9,4.99,0.00,29.7,28.8,00.0,38.6,31.6,24.7,0000.0,0004.97,0013.87,0003.22
2022-06-10 08:36:00,,0827.9,5.01,0.00,29.7,28.8,00.0,38.6,31.6,24.7,0000.0,0005.00,0014.05,0003.22
2022-06-10 08:37:00,,0827.8,5.01,0.00,29.7,28.8,00.0,38.6,31.6,24.7,0000.0,0005.04,0014.36,0003.22
2022-06-10 08:38:00,,0827.8,4.99,0.00,29.7,28.8,00.0,38.7,31.6,24.6,0000.0,0005.02,0013.91,0003.22
2022-06-10 08:39:00,,0827.8,4.99,0.00,29.7,28.8,00.0,38.7,31.6,24.5,0000.0,0004.95,0013.52,0003.22
2022-06-10 08:40:00,,0827.8,5.01,0.00,29.7,28.8,00.0,38.7,31.6,24.6,0000.0,0004.96,0013.57,0003.24
2022-06-10 08:41:00,,0827.8,5.00,0.00,29.7,28.8,00.0,38.7,31.6,24.6,0000.0,0004.97,0012.75,0003.26
2022-06-10 08:42:00,,0827.7,5.00,0.00,29.7,28.8,00.0,38.7,31.6,24.7,0000.0,0005.03,0013.57,0003.26
2022-06-10 08:43:00,,0827.8,5.00,0.00,29.7,28.8,00.0,38.7,31.6,24.8,0000.0,0005.12,0014.46,0003.26
2022-06-10 08:44:00,,0827.7,5.00,0.00,29.7,28.8,00.0,38.7,31.6,24.6,0000.0,0005.04,0014.44,0003.27
2022-06-10 08:45:00,,0827.7,5.00,0.00,29.8,28.8,00.0,38.7,31.6,24.4,0000.0,0005.01,0014.75,0003.28
2022-06-10 08:46:00,,0827.7,5.01,0.00,29.8,28.8,00.0,38.7,31.6,24.5,0000.0,0004.98,0014.07,0003.29
2022-06-10 08:47:00,,0827.7,4.99,0.00,29.8,28.8,00.0,38.7,31.6,24.5,0000.0,0004.99,0013.87,0003.30
2022-06-10 08:48:00,,0827.7,5.00,0.00,29.8,28.8,00.0,38.7,31.7,24.4,0000.0,0004.98,0014.19,0003.32
2022-06-10 08:49:00,,0827.7,5.01,0.00,29.8,28.8,00.0,38.7,31.7,24.4,0000.0,0005.04,0014.75,0003.34
2022-06-10 08:50:00,,0827.6,5.01,0.00,29.8,28.9,00.0,38.7,31.7,24.5,0000.0,0005.13,0015.70,0003.35
2022-06-10 08:51:00,,0827.6,5.00,0.00,29.8,28.9,00.0,38.7,31.7,24.5,0000.0,0005.14,0015.57,0003.35
2022-06-10 08:52:00,,0827.5,4.99,0.00,29.8,28.8,00.0,38.7,31.7,24.5,0000.0,0005.18,0016.55,0003.36
2022-06-10 08:53:00,,0827.5,4.99,0.00,29.8,28.9,00.0,38.7,31.7,24.4,0000.0,0005.21,0016.44,0003.37
2022-06-10 08:54:00,,0827.5,5.01,0.00,29.8,28.9,00.0,38.7,31.7,24.4,0000.0,0005.19,0016.17,0003.38
2022-06-10 08:55:00,,0827.5,5.00,0.00,29.8,28.9,00.0,38.7,31.7,24.3,0000.0,0005.21,0016.24,0003.39
2022-06-10 08:56:00,,0827.5,5.00,0.00,29.8,28.9,00.0,38.7,31.7,24.2,0000.0,0005.26,0015.82,0003.39
2022-06-10 08:57:00,,0827.5,5.00,0.00,29.8,28.9,00.0,38.7,31.7,24.3,0000.0,0005.34,0016.12,0003.40
2022-06-10 08:58:00,,0827.5,4.99,0.00,29.8,28.9,00.0,38.7,31.7,24.4,0000.0,0005.28,0016.06,0003.40
2022-06-10 08:59:00,,0827.5,4.99,0.00,29.8,28.9,00.0,38.7,31.7,24.4,0000.0,0005.24,0015.46,0003.39
